Etusivu
METAR-TAF:

METAR-TAF

Lentoasemat :

Morris Municipal Airport (Charlie Schmidt Field)

Morris, Minnesota, Yhdysvallat

Leveyspiiri: 45-34N, Pituuspiiri: 095-58W, korkeus merenpinnasta: 344 m

Tämänhetkinen sää

Tämä raportti tehtiin 18 minuuttia sitten, kello 09.16 UTC
Tuuli 9 kn kaakosta
Lämpötila -7°C
Kosteus 73%
Ilmanpaine 1007 hPa
Näkyvyys: 16.1 km
selkeää

METAR: KMOX 130916Z AUTO 14009KT 10SM CLR M07/M11 A2975 RMK AO2

Aika: 03:34 (09:34 UTC)


TAF: puuttuu

Säähavainnot ja -ennusteet yli 4000 lentoasemalta (METAR- ja TAF-raportit).

Käytössä olevat sääasemat on merkitty karttaan keltaisilla ja punaisilla pisteillä.

Aseta hiiri pisteen päälle nähdäksesi sääaseman nimen.

Klikkaa sitten nähdäksesi säähavainnot ja -ennusteet.

Kartan vaihtaminen: klikkaa mustalla rastilla varustettuja vihreitä pisteitä, niin voit zoomata sisään; viivalla varustettua vihreää pistettä, niin voit zoomata ulos tai vihreitä nuolia, niin pääset viereisille kartoille.


METAR-TAF: